Year,Month,Day,Hour,Minute,Value (Times are PST for insolation in W/m^2)
2010,05,22,00,00,0.00
2010,05,22,00,01,0.00
2010,05,22,00,02,0.00
2010,05,22,00,03,0.00
2010,05,22,00,04,0.00
2010,05,22,00,05,0.00
2010,05,22,00,06,0.00
2010,05,22,00,07,0.00
2010,05,22,00,08,0.00
2010,05,22,00,09,0.00
2010,05,22,00,10,0.00
2010,05,22,00,11,0.00
2010,05,22,00,12,0.00
2010,05,22,00,13,0.00
2010,05,22,00,14,0.00
2010,05,22,00,15,0.00
2010,05,22,00,16,0.00
2010,05,22,00,17,0.00
2010,05,22,00,18,0.00
2010,05,22,00,19,0.00
2010,05,22,00,20,0.00
2010,05,22,00,21,0.00
2010,05,22,00,22,0.00
2010,05,22,00,23,0.00
2010,05,22,00,24,0.00
2010,05,22,00,25,0.00
2010,05,22,00,26,0.00
2010,05,22,00,27,0.00
2010,05,22,00,28,0.00
2010,05,22,00,29,0.00
2010,05,22,00,30,0.00
2010,05,22,00,31,0.00
2010,05,22,00,32,0.00
2010,05,22,00,33,0.00
2010,05,22,00,34,0.00
2010,05,22,00,35,0.00
2010,05,22,00,36,0.00
2010,05,22,00,37,0.00
2010,05,22,00,38,0.00
2010,05,22,00,39,0.00
2010,05,22,00,40,0.00
2010,05,22,00,41,0.00
2010,05,22,00,42,0.00
2010,05,22,00,43,0.00
2010,05,22,00,44,0.00
2010,05,22,00,45,0.00
2010,05,22,00,46,0.00
2010,05,22,00,47,0.00
2010,05,22,00,48,0.00
2010,05,22,00,49,0.00
2010,05,22,00,50,0.00
2010,05,22,00,51,0.00
2010,05,22,00,52,0.00
2010,05,22,00,53,0.00
2010,05,22,00,54,0.00
2010,05,22,00,55,0.00
2010,05,22,00,56,0.00
2010,05,22,00,57,0.00
2010,05,22,00,58,0.00
2010,05,22,00,59,0.00
2010,05,22,01,00,0.00
2010,05,22,01,01,0.00
2010,05,22,01,02,0.00
2010,05,22,01,03,0.00
2010,05,22,01,04,0.00
2010,05,22,01,05,0.00
2010,05,22,01,06,0.00
2010,05,22,01,07,0.00
2010,05,22,01,08,0.00
2010,05,22,01,09,0.00
2010,05,22,01,10,0.00
2010,05,22,01,11,0.00
2010,05,22,01,12,0.00
2010,05,22,01,13,0.00
2010,05,22,01,14,0.00
2010,05,22,01,15,0.00
2010,05,22,01,16,0.00
2010,05,22,01,17,0.00
2010,05,22,01,18,0.00
2010,05,22,01,19,0.00
2010,05,22,01,20,0.00
2010,05,22,01,21,0.00
2010,05,22,01,22,0.00
2010,05,22,01,23,0.00
2010,05,22,01,24,0.00
2010,05,22,01,25,0.00
2010,05,22,01,26,0.00
2010,05,22,01,27,0.00
2010,05,22,01,28,0.00
2010,05,22,01,29,0.00
2010,05,22,01,30,0.00
2010,05,22,01,31,0.00
2010,05,22,01,32,0.00
2010,05,22,01,33,0.00
2010,05,22,01,34,0.00
2010,05,22,01,35,0.00
2010,05,22,01,36,0.00
2010,05,22,01,37,0.00
2010,05,22,01,38,0.00
2010,05,22,01,39,0.00
2010,05,22,01,40,0.00
2010,05,22,01,41,0.00
2010,05,22,01,42,0.00
2010,05,22,01,43,0.00
2010,05,22,01,44,0.00
2010,05,22,01,45,0.00
2010,05,22,01,46,0.00
2010,05,22,01,47,0.00
2010,05,22,01,48,0.00
2010,05,22,01,49,0.00
2010,05,22,01,50,0.00
2010,05,22,01,51,0.00
2010,05,22,01,52,0.00
2010,05,22,01,53,0.00
2010,05,22,01,54,0.00
2010,05,22,01,55,0.00
2010,05,22,01,56,0.00
2010,05,22,01,57,0.00
2010,05,22,01,58,0.00
2010,05,22,01,59,0.00
2010,05,22,02,00,0.00
2010,05,22,02,01,0.00
2010,05,22,02,02,0.00
2010,05,22,02,03,0.00
2010,05,22,02,04,0.00
2010,05,22,02,05,0.00
2010,05,22,02,06,0.00
2010,05,22,02,07,0.00
2010,05,22,02,08,0.00
2010,05,22,02,09,0.00
2010,05,22,02,10,0.00
2010,05,22,02,11,0.00
2010,05,22,02,12,0.00
2010,05,22,02,13,0.00
2010,05,22,02,14,0.00
2010,05,22,02,15,0.00
2010,05,22,02,16,0.00
2010,05,22,02,17,0.00
2010,05,22,02,18,0.00
2010,05,22,02,19,0.00
2010,05,22,02,20,0.00
2010,05,22,02,21,0.00
2010,05,22,02,22,0.00
2010,05,22,02,23,0.00
2010,05,22,02,24,0.00
2010,05,22,02,25,0.00
2010,05,22,02,26,0.00
2010,05,22,02,27,0.00
2010,05,22,02,28,0.00
2010,05,22,02,29,0.00
2010,05,22,02,30,0.00
2010,05,22,02,31,0.00
2010,05,22,02,32,0.00
2010,05,22,02,33,0.00
2010,05,22,02,34,0.00
2010,05,22,02,35,0.00
2010,05,22,02,36,0.00
2010,05,22,02,37,0.00
2010,05,22,02,38,0.00
2010,05,22,02,39,0.00
2010,05,22,02,40,0.00
2010,05,22,02,41,0.00
2010,05,22,02,42,0.00
2010,05,22,02,43,0.00
2010,05,22,02,44,0.00
2010,05,22,02,45,0.00
2010,05,22,02,46,0.00
2010,05,22,02,47,0.00
2010,05,22,02,48,0.00
2010,05,22,02,49,0.00
2010,05,22,02,50,0.00
2010,05,22,02,51,0.00
2010,05,22,02,52,0.00
2010,05,22,02,53,0.00
2010,05,22,02,54,0.00
2010,05,22,02,55,0.00
2010,05,22,02,56,0.00
2010,05,22,02,57,0.00
2010,05,22,02,58,0.00
2010,05,22,02,59,0.00
2010,05,22,03,00,0.00
2010,05,22,03,01,0.00
2010,05,22,03,02,0.00
2010,05,22,03,03,0.00
2010,05,22,03,04,0.00
2010,05,22,03,05,0.00
2010,05,22,03,06,0.00
2010,05,22,03,07,0.00
2010,05,22,03,08,0.00
2010,05,22,03,09,0.00
2010,05,22,03,10,0.00
2010,05,22,03,11,0.00
2010,05,22,03,12,0.00
2010,05,22,03,13,0.00
2010,05,22,03,14,0.00
2010,05,22,03,15,0.00
2010,05,22,03,16,0.00
2010,05,22,03,17,0.00
2010,05,22,03,18,0.00
2010,05,22,03,19,0.00
2010,05,22,03,20,0.00
2010,05,22,03,21,0.00
2010,05,22,03,22,0.00
2010,05,22,03,23,0.00
2010,05,22,03,24,0.00
2010,05,22,03,25,0.00
2010,05,22,03,26,0.00
2010,05,22,03,27,0.00
2010,05,22,03,28,0.00
2010,05,22,03,29,0.00
2010,05,22,03,30,0.00
2010,05,22,03,31,0.00
2010,05,22,03,32,0.00
2010,05,22,03,33,0.00
2010,05,22,03,34,0.00
2010,05,22,03,35,0.00
2010,05,22,03,36,0.00
2010,05,22,03,37,0.00
2010,05,22,03,38,0.00
2010,05,22,03,39,0.00
2010,05,22,03,40,0.00
2010,05,22,03,41,0.00
2010,05,22,03,42,0.00
2010,05,22,03,43,0.00
2010,05,22,03,44,0.00
2010,05,22,03,45,0.00
2010,05,22,03,46,0.00
2010,05,22,03,47,0.00
2010,05,22,03,48,0.00
2010,05,22,03,49,0.00
2010,05,22,03,50,0.00
2010,05,22,03,51,0.00
2010,05,22,03,52,0.00
2010,05,22,03,53,0.00
2010,05,22,03,54,0.00
2010,05,22,03,55,0.00
2010,05,22,03,56,0.00
2010,05,22,03,57,0.00
2010,05,22,03,58,0.00
2010,05,22,03,59,0.00
2010,05,22,04,00,0.00
2010,05,22,04,01,0.00
2010,05,22,04,02,0.00
2010,05,22,04,03,0.00
2010,05,22,04,04,0.00
2010,05,22,04,05,0.00
2010,05,22,04,06,0.00
2010,05,22,04,07,0.00
2010,05,22,04,08,0.00
2010,05,22,04,09,0.00
2010,05,22,04,10,0.00
2010,05,22,04,11,0.00
2010,05,22,04,12,0.00
2010,05,22,04,13,0.00
2010,05,22,04,14,0.00
2010,05,22,04,15,0.00
2010,05,22,04,16,0.00
2010,05,22,04,17,0.00
2010,05,22,04,18,0.00
2010,05,22,04,19,0.00
2010,05,22,04,20,0.00
2010,05,22,04,21,0.00
2010,05,22,04,22,0.00
2010,05,22,04,23,0.00
2010,05,22,04,24,0.00
2010,05,22,04,25,0.00
2010,05,22,04,26,0.00
2010,05,22,04,27,0.00
2010,05,22,04,28,0.00
2010,05,22,04,29,0.00
2010,05,22,04,30,0.00
2010,05,22,04,31,0.00
2010,05,22,04,32,0.00
2010,05,22,04,33,0.00
2010,05,22,04,34,0.00
2010,05,22,04,35,0.00
2010,05,22,04,36,0.00
2010,05,22,04,37,0.00
2010,05,22,04,38,0.00
2010,05,22,04,39,0.00
2010,05,22,04,40,0.00
2010,05,22,04,41,0.00
2010,05,22,04,42,0.00
2010,05,22,04,43,0.00
2010,05,22,04,44,0.00
2010,05,22,04,45,0.00
2010,05,22,04,46,0.00
2010,05,22,04,47,0.00
2010,05,22,04,48,0.00
2010,05,22,04,49,0.00
2010,05,22,04,50,0.00
2010,05,22,04,51,0.00
2010,05,22,04,52,0.00
2010,05,22,04,53,0.00
2010,05,22,04,54,0.00
2010,05,22,04,55,0.00
2010,05,22,04,56,0.00
2010,05,22,04,57,0.00
2010,05,22,04,58,0.00
2010,05,22,04,59,0.00
2010,05,22,05,00,0.00
2010,05,22,05,01,0.00
2010,05,22,05,02,0.00
2010,05,22,05,03,0.00
2010,05,22,05,04,0.00
2010,05,22,05,05,0.00
2010,05,22,05,06,0.00
2010,05,22,05,07,0.00
2010,05,22,05,08,0.00
2010,05,22,05,09,0.00
2010,05,22,05,10,0.00
2010,05,22,05,11,0.00
2010,05,22,05,12,0.00
2010,05,22,05,13,0.00
2010,05,22,05,14,0.00
2010,05,22,05,15,0.00
2010,05,22,05,16,0.00
2010,05,22,05,17,0.00
2010,05,22,05,18,0.00
2010,05,22,05,19,0.00
2010,05,22,05,20,0.00
2010,05,22,05,21,0.00
2010,05,22,05,22,0.00
2010,05,22,05,23,0.00
2010,05,22,05,24,0.00
2010,05,22,05,25,0.00
2010,05,22,05,26,0.00
2010,05,22,05,27,0.00
2010,05,22,05,28,0.00
2010,05,22,05,29,0.00
2010,05,22,05,30,0.00
2010,05,22,05,31,0.00
2010,05,22,05,32,4.20
2010,05,22,05,33,5.00
2010,05,22,05,34,5.00
2010,05,22,05,35,5.00
2010,05,22,05,36,6.30
2010,05,22,05,37,7.00
2010,05,22,05,38,7.00
2010,05,22,05,39,7.00
2010,05,22,05,40,7.70
2010,05,22,05,41,9.00
2010,05,22,05,42,9.00
2010,05,22,05,43,9.00
2010,05,22,05,44,10.90
2010,05,22,05,45,11.00
2010,05,22,05,46,11.00
2010,05,22,05,47,11.50
2010,05,22,05,48,12.00
2010,05,22,05,49,12.00
2010,05,22,05,50,12.00
2010,05,22,05,51,12.00
2010,05,22,05,52,12.00
2010,05,22,05,53,12.00
2010,05,22,05,54,12.00
2010,05,22,05,55,12.00
2010,05,22,05,56,12.20
2010,05,22,05,57,14.00
2010,05,22,05,58,14.00
2010,05,22,05,59,14.00
2010,05,22,06,00,14.00
2010,05,22,06,01,14.00
2010,05,22,06,02,16.00
2010,05,22,06,03,16.00
2010,05,22,06,04,16.80
2010,05,22,06,05,18.60
2010,05,22,06,06,19.00
2010,05,22,06,07,19.00
2010,05,22,06,08,19.30
2010,05,22,06,09,21.60
2010,05,22,06,10,23.00
2010,05,22,06,11,23.00
2010,05,22,06,12,24.50
2010,05,22,06,13,25.90
2010,05,22,06,14,26.30
2010,05,22,06,15,28.60
2010,05,22,06,16,30.00
2010,05,22,06,17,31.30
2010,05,22,06,18,32.00
2010,05,22,06,19,32.90
2010,05,22,06,20,33.40
2010,05,22,06,21,35.00
2010,05,22,06,22,35.90
2010,05,22,06,23,38.30
2010,05,22,06,24,39.00
2010,05,22,06,25,40.10
2010,05,22,06,26,42.00
2010,05,22,06,27,42.70
2010,05,22,06,28,44.00
2010,05,22,06,29,45.40
2010,05,22,06,30,46.00
2010,05,22,06,31,46.00
2010,05,22,06,32,46.00
2010,05,22,06,33,45.20
2010,05,22,06,34,44.00
2010,05,22,06,35,44.00
2010,05,22,06,36,42.30
2010,05,22,06,37,42.00
2010,05,22,06,38,41.50
2010,05,22,06,39,40.00
2010,05,22,06,40,40.00
2010,05,22,06,41,40.00
2010,05,22,06,42,40.00
2010,05,22,06,43,39.00
2010,05,22,06,44,39.00
2010,05,22,06,45,39.00
2010,05,22,06,46,39.00
2010,05,22,06,47,39.00
2010,05,22,06,48,39.00
2010,05,22,06,49,39.20
2010,05,22,06,50,40.60
2010,05,22,06,51,42.00
2010,05,22,06,52,43.20
2010,05,22,06,53,45.50
2010,05,22,06,54,46.90
2010,05,22,06,55,47.30
2010,05,22,06,56,49.00
2010,05,22,06,57,49.00
2010,05,22,06,58,49.00
2010,05,22,06,59,49.00
2010,05,22,07,00,49.00
2010,05,22,07,01,49.30
2010,05,22,07,02,51.00
2010,05,22,07,03,51.90
2010,05,22,07,04,53.00
2010,05,22,07,05,53.00
2010,05,22,07,06,53.90
2010,05,22,07,07,54.30
2010,05,22,07,08,56.70
2010,05,22,07,09,58.00
2010,05,22,07,10,59.40
2010,05,22,07,11,60.00
2010,05,22,07,12,60.00
2010,05,22,07,13,60.00
2010,05,22,07,14,60.70
2010,05,22,07,15,62.00
2010,05,22,07,16,62.70
2010,05,22,07,17,63.00
2010,05,22,07,18,65.20
2010,05,22,07,19,67.50
2010,05,22,07,20,70.30
2010,05,22,07,21,77.80
2010,05,22,07,22,109.00
2010,05,22,07,23,85.60
2010,05,22,07,24,79.20
2010,05,22,07,25,88.40
2010,05,22,07,26,130.50
2010,05,22,07,27,147.80
2010,05,22,07,28,139.00
2010,05,22,07,29,214.20
2010,05,22,07,30,220.90
2010,05,22,07,31,220.00
2010,05,22,07,32,220.00
2010,05,22,07,33,220.00
2010,05,22,07,34,218.60
2010,05,22,07,35,218.00
2010,05,22,07,36,218.50
2010,05,22,07,37,222.90
2010,05,22,07,38,230.30
2010,05,22,07,39,236.90
2010,05,22,07,40,241.80
2010,05,22,07,41,237.60
2010,05,22,07,42,237.80
2010,05,22,07,43,242.60
2010,05,22,07,44,249.30
2010,05,22,07,45,255.60
2010,05,22,07,46,260.90
2010,05,22,07,47,267.00
2010,05,22,07,48,272.80
2010,05,22,07,49,277.80
2010,05,22,07,50,284.20
2010,05,22,07,51,287.60
2010,05,22,07,52,289.60
2010,05,22,07,53,292.00
2010,05,22,07,54,293.60
2010,05,22,07,55,293.10
2010,05,22,07,56,297.10
2010,05,22,07,57,301.10
2010,05,22,07,58,301.20
2010,05,22,07,59,297.00
2010,05,22,08,00,295.50
2010,05,22,08,01,292.80
2010,05,22,08,02,301.10
2010,05,22,08,03,309.10
2010,05,22,08,04,314.20
2010,05,22,08,05,316.40
2010,05,22,08,06,321.30
2010,05,22,08,07,327.10
2010,05,22,08,08,331.20
2010,05,22,08,09,336.40
2010,05,22,08,10,342.50
2010,05,22,08,11,350.80
2010,05,22,08,12,356.60
2010,05,22,08,13,360.90
2010,05,22,08,14,364.90
2010,05,22,08,15,369.90
2010,05,22,08,16,372.80
2010,05,22,08,17,378.30
2010,05,22,08,18,381.60
2010,05,22,08,19,388.30
2010,05,22,08,20,395.20
2010,05,22,08,21,401.70
2010,05,22,08,22,403.60
2010,05,22,08,23,416.50
2010,05,22,08,24,399.20
2010,05,22,08,25,356.20
2010,05,22,08,26,406.90
2010,05,22,08,27,423.20
2010,05,22,08,28,415.10
2010,05,22,08,29,379.60
2010,05,22,08,30,387.20
2010,05,22,08,31,390.90
2010,05,22,08,32,402.10
2010,05,22,08,33,441.40
2010,05,22,08,34,456.50
2010,05,22,08,35,458.00
2010,05,22,08,36,461.00
2010,05,22,08,37,462.60
2010,05,22,08,38,464.00
2010,05,22,08,39,465.70
2010,05,22,08,40,464.20
2010,05,22,08,41,466.40
2010,05,22,08,42,468.00
2010,05,22,08,43,469.60
2010,05,22,08,44,473.60
2010,05,22,08,45,475.80
2010,05,22,08,46,478.20
2010,05,22,08,47,480.80
2010,05,22,08,48,484.70
2010,05,22,08,49,488.60
2010,05,22,08,50,490.00
2010,05,22,08,51,491.80
2010,05,22,08,52,496.50
2010,05,22,08,53,499.60
2010,05,22,08,54,501.80
2010,05,22,08,55,504.70
2010,05,22,08,56,508.90
2010,05,22,08,57,512.70
2010,05,22,08,58,517.80
2010,05,22,08,59,523.30
2010,05,22,09,00,526.50
2010,05,22,09,01,528.20
2010,05,22,09,02,532.00
2010,05,22,09,03,535.90
2010,05,22,09,04,540.20
2010,05,22,09,05,541.60
2010,05,22,09,06,544.80
2010,05,22,09,07,547.60
2010,05,22,09,08,549.60
2010,05,22,09,09,553.80
2010,05,22,09,10,555.80
2010,05,22,09,11,559.70
2010,05,22,09,12,562.60
2010,05,22,09,13,565.30
2010,05,22,09,14,569.20
2010,05,22,09,15,571.10
2010,05,22,09,16,573.40
2010,05,22,09,17,575.70
2010,05,22,09,18,577.00
2010,05,22,09,19,579.10
2010,05,22,09,20,581.70
2010,05,22,09,21,584.10
2010,05,22,09,22,586.10
2010,05,22,09,23,589.00
2010,05,22,09,24,590.70
2010,05,22,09,25,593.40
2010,05,22,09,26,597.20
2010,05,22,09,27,599.20
2010,05,22,09,28,602.00
2010,05,22,09,29,605.40
2010,05,22,09,30,605.40
2010,05,22,09,31,605.70
2010,05,22,09,32,606.00
2010,05,22,09,33,612.70
2010,05,22,09,34,619.60
2010,05,22,09,35,621.40
2010,05,22,09,36,626.10
2010,05,22,09,37,630.40
2010,05,22,09,38,639.10
2010,05,22,09,39,649.20
2010,05,22,09,40,675.20
2010,05,22,09,41,682.70
2010,05,22,09,42,692.30
2010,05,22,09,43,704.20
2010,05,22,09,44,719.50
2010,05,22,09,45,729.90
2010,05,22,09,46,735.00
2010,05,22,09,47,735.90
2010,05,22,09,48,731.30
2010,05,22,09,49,728.00
2010,05,22,09,50,734.60
2010,05,22,09,51,735.00
2010,05,22,09,52,718.90
2010,05,22,09,53,690.90
2010,05,22,09,54,701.40
2010,05,22,09,55,703.80
2010,05,22,09,56,698.30
2010,05,22,09,57,694.80
2010,05,22,09,58,698.70
2010,05,22,09,59,700.00
2010,05,22,10,00,702.10
2010,05,22,10,01,703.00
2010,05,22,10,02,706.40
2010,05,22,10,03,705.40
2010,05,22,10,04,708.10
2010,05,22,10,05,710.00
2010,05,22,10,06,710.00
2010,05,22,10,07,710.00
2010,05,22,10,08,708.30
2010,05,22,10,09,711.10
2010,05,22,10,10,714.40
2010,05,22,10,11,717.30
2010,05,22,10,12,717.60
2010,05,22,10,13,706.90
2010,05,22,10,14,702.00
2010,05,22,10,15,710.40
2010,05,22,10,16,719.80
2010,05,22,10,17,726.30
2010,05,22,10,18,730.20
2010,05,22,10,19,734.60
2010,05,22,10,20,737.80
2010,05,22,10,21,737.00
2010,05,22,10,22,738.40
2010,05,22,10,23,741.20
2010,05,22,10,24,742.00
2010,05,22,10,25,743.80
2010,05,22,10,26,748.00
2010,05,22,10,27,752.00
2010,05,22,10,28,753.80
2010,05,22,10,29,756.00
2010,05,22,10,30,758.20
2010,05,22,10,31,761.00
2010,05,22,10,32,766.00
2010,05,22,10,33,770.70
2010,05,22,10,34,772.50
2010,05,22,10,35,773.00
2010,05,22,10,36,776.20
2010,05,22,10,37,779.10
2010,05,22,10,38,782.00
2010,05,22,10,39,782.00
2010,05,22,10,40,783.10
2010,05,22,10,41,787.20
2010,05,22,10,42,790.60
2010,05,22,10,43,790.80
2010,05,22,10,44,789.00
2010,05,22,10,45,789.70
2010,05,22,10,46,792.10
2010,05,22,10,47,794.40
2010,05,22,10,48,795.80
2010,05,22,10,49,798.10
2010,05,22,10,50,801.30
2010,05,22,10,51,809.40
2010,05,22,10,52,820.20
2010,05,22,10,53,824.00
2010,05,22,10,54,845.20
2010,05,22,10,55,852.30
2010,05,22,10,56,845.00
2010,05,22,10,57,840.30
2010,05,22,10,58,837.50
2010,05,22,10,59,839.20
2010,05,22,11,00,822.30
2010,05,22,11,01,853.80
2010,05,22,11,02,853.00
2010,05,22,11,03,855.40
2010,05,22,11,04,858.00
2010,05,22,11,05,578.20
2010,05,22,11,06,485.00
2010,05,22,11,07,485.00
2010,05,22,11,08,485.00
2010,05,22,11,09,485.00
2010,05,22,11,10,358.40
2010,05,22,11,11,274.00
2010,05,22,11,12,274.00
2010,05,22,11,13,274.00
2010,05,22,11,14,274.00
2010,05,22,11,15,565.00
2010,05,22,11,16,831.40
2010,05,22,11,17,855.40
2010,05,22,11,18,868.60
2010,05,22,11,19,892.50
2010,05,22,11,20,932.40
2010,05,22,11,21,939.50
2010,05,22,11,22,949.20
2010,05,22,11,23,961.10
2010,05,22,11,24,969.40
2010,05,22,11,25,984.80
2010,05,22,11,26,976.70
2010,05,22,11,27,978.20
2010,05,22,11,28,1013.00
2010,05,22,11,29,1029.50
2010,05,22,11,30,1032.00
2010,05,22,11,31,1033.20
2010,05,22,11,32,1039.10
2010,05,22,11,33,1048.10
2010,05,22,11,34,1053.00
2010,05,22,11,35,742.30
2010,05,22,11,36,718.80
2010,05,22,11,37,911.80
2010,05,22,11,38,894.40
2010,05,22,11,39,889.00
2010,05,22,11,40,902.80
2010,05,22,11,41,922.50
2010,05,22,11,42,927.50
2010,05,22,11,43,927.20
2010,05,22,11,44,930.20
2010,05,22,11,45,936.40
2010,05,22,11,46,947.50
2010,05,22,11,47,943.70
2010,05,22,11,48,937.70
2010,05,22,11,49,961.20
2010,05,22,11,50,983.10
2010,05,22,11,51,956.50
2010,05,22,11,52,912.00
2010,05,22,11,53,912.00
2010,05,22,11,54,991.80
2010,05,22,11,55,974.60
2010,05,22,11,56,956.50
2010,05,22,11,57,947.00
2010,05,22,11,58,958.80
2010,05,22,11,59,971.80
2010,05,22,12,00,978.60
2010,05,22,12,01,972.80
2010,05,22,12,02,963.30
2010,05,22,12,03,962.00
2010,05,22,12,04,962.00
2010,05,22,12,05,951.90
2010,05,22,12,06,951.40
2010,05,22,12,07,977.80
2010,05,22,12,08,997.80
2010,05,22,12,09,1002.70
2010,05,22,12,10,996.10
2010,05,22,12,11,1001.00
2010,05,22,12,12,933.00
2010,05,22,12,13,973.40
2010,05,22,12,14,1034.60
2010,05,22,12,15,1041.30
2010,05,22,12,16,1036.40
2010,05,22,12,17,1015.70
2010,05,22,12,18,842.00
2010,05,22,12,19,637.70
2010,05,22,12,20,388.00
2010,05,22,12,21,388.00
2010,05,22,12,22,388.00
2010,05,22,12,23,443.00
2010,05,22,12,24,443.00
2010,05,22,12,25,718.80
2010,05,22,12,26,1068.00
2010,05,22,12,27,1091.50
2010,05,22,12,28,1126.50
2010,05,22,12,29,1090.60
2010,05,22,12,30,867.00
2010,05,22,12,31,867.00
2010,05,22,12,32,867.00
2010,05,22,12,33,1121.20
2010,05,22,12,34,1183.60
2010,05,22,12,35,1185.00
2010,05,22,12,36,1205.90
2010,05,22,12,37,1215.00
2010,05,22,12,38,1215.00
2010,05,22,12,39,649.50
2010,05,22,12,40,461.00
2010,05,22,12,41,462.70
2010,05,22,12,42,469.00
2010,05,22,12,43,469.00
2010,05,22,12,44,469.00
2010,05,22,12,45,469.00
2010,05,22,12,46,1027.10
2010,05,22,12,47,1028.80
2010,05,22,12,48,1034.00
2010,05,22,12,49,1034.00
2010,05,22,12,50,1034.00
2010,05,22,12,51,1034.00
2010,05,22,12,52,974.50
2010,05,22,12,53,469.00
2010,05,22,12,54,469.00
2010,05,22,12,55,482.30
2010,05,22,12,56,443.20
2010,05,22,12,57,409.40
2010,05,22,12,58,381.90
2010,05,22,12,59,388.80
2010,05,22,13,00,388.50
2010,05,22,13,01,382.10
2010,05,22,13,02,408.80
2010,05,22,13,03,388.50
2010,05,22,13,04,314.10
2010,05,22,13,05,321.30
2010,05,22,13,06,357.00
2010,05,22,13,07,357.00
2010,05,22,13,08,357.00
2010,05,22,13,09,357.00
2010,05,22,13,10,504.00
2010,05,22,13,11,504.00
2010,05,22,13,12,504.00
2010,05,22,13,13,379.90
2010,05,22,13,14,296.40
2010,05,22,13,15,289.40
2010,05,22,13,16,316.60
2010,05,22,13,17,340.60
2010,05,22,13,18,308.50
2010,05,22,13,19,309.80
2010,05,22,13,20,387.60
2010,05,22,13,21,408.00
2010,05,22,13,22,372.00
2010,05,22,13,23,261.40
2010,05,22,13,24,258.60
2010,05,22,13,25,271.70
2010,05,22,13,26,296.20
2010,05,22,13,27,327.60
2010,05,22,13,28,332.80
2010,05,22,13,29,345.40
2010,05,22,13,30,364.10
2010,05,22,13,31,374.00
2010,05,22,13,32,374.00
2010,05,22,13,33,844.00
2010,05,22,13,34,722.20
2010,05,22,13,35,366.60
2010,05,22,13,36,331.70
2010,05,22,13,37,307.60
2010,05,22,13,38,291.70
2010,05,22,13,39,283.80
2010,05,22,13,40,289.60
2010,05,22,13,41,305.80
2010,05,22,13,42,318.00
2010,05,22,13,43,318.00
2010,05,22,13,44,352.90
2010,05,22,13,45,359.00
2010,05,22,13,46,359.00
2010,05,22,13,47,372.70
2010,05,22,13,48,397.30
2010,05,22,13,49,410.30
2010,05,22,13,50,420.60
2010,05,22,13,51,422.00
2010,05,22,13,52,536.90
2010,05,22,13,53,769.30
2010,05,22,13,54,741.40
2010,05,22,13,55,767.00
2010,05,22,13,56,802.10
2010,05,22,13,57,727.30
2010,05,22,13,58,436.00
2010,05,22,13,59,574.80
2010,05,22,14,00,711.30
2010,05,22,14,01,671.00
2010,05,22,14,02,676.20
2010,05,22,14,03,677.00
2010,05,22,14,04,677.00
2010,05,22,14,05,555.00
2010,05,22,14,06,395.10
2010,05,22,14,07,390.00
2010,05,22,14,08,390.00
2010,05,22,14,09,412.40
2010,05,22,14,10,475.00
2010,05,22,14,11,672.90
2010,05,22,14,12,810.00
2010,05,22,14,13,719.80
2010,05,22,14,14,671.40
2010,05,22,14,15,364.20
2010,05,22,14,16,347.90
2010,05,22,14,17,351.90
2010,05,22,14,18,357.00
2010,05,22,14,19,357.00
2010,05,22,14,20,355.40
2010,05,22,14,21,343.00
2010,05,22,14,22,339.80
2010,05,22,14,23,335.10
2010,05,22,14,24,318.90
2010,05,22,14,25,309.70
2010,05,22,14,26,303.20
2010,05,22,14,27,299.00
2010,05,22,14,28,302.10
2010,05,22,14,29,325.10
2010,05,22,14,30,343.20
2010,05,22,14,31,363.40
2010,05,22,14,32,404.70
2010,05,22,14,33,483.00
2010,05,22,14,34,573.50
2010,05,22,14,35,685.90
2010,05,22,14,36,731.80
2010,05,22,14,37,765.20
2010,05,22,14,38,677.10
2010,05,22,14,39,678.20
2010,05,22,14,40,674.00
2010,05,22,14,41,633.20
2010,05,22,14,42,669.80
2010,05,22,14,43,688.50
2010,05,22,14,44,816.20
2010,05,22,14,45,858.00
2010,05,22,14,46,590.60
2010,05,22,14,47,359.60
2010,05,22,14,48,396.00
2010,05,22,14,49,395.70
2010,05,22,14,50,400.20
2010,05,22,14,51,420.80
2010,05,22,14,52,354.00
2010,05,22,14,53,336.50
2010,05,22,14,54,374.90
2010,05,22,14,55,383.00
2010,05,22,14,56,490.40
2010,05,22,14,57,815.40
2010,05,22,14,58,849.00
2010,05,22,14,59,849.00
2010,05,22,15,00,849.00
2010,05,22,15,01,849.00
2010,05,22,15,02,861.20
2010,05,22,15,03,892.90
2010,05,22,15,04,886.00
2010,05,22,15,05,796.80
2010,05,22,15,06,694.30
2010,05,22,15,07,593.20
2010,05,22,15,08,596.00
2010,05,22,15,09,657.30
2010,05,22,15,10,726.60
2010,05,22,15,11,740.80
2010,05,22,15,12,763.60
2010,05,22,15,13,786.00
2010,05,22,15,14,742.10
2010,05,22,15,15,665.90
2010,05,22,15,16,687.00
2010,05,22,15,17,437.50
2010,05,22,15,18,369.60
2010,05,22,15,19,345.00
2010,05,22,15,20,469.60
2010,05,22,15,21,701.90
2010,05,22,15,22,696.70
2010,05,22,15,23,670.10
2010,05,22,15,24,728.10
2010,05,22,15,25,710.90
2010,05,22,15,26,733.70
2010,05,22,15,27,732.90
2010,05,22,15,28,710.50
2010,05,22,15,29,680.20
2010,05,22,15,30,669.30
2010,05,22,15,31,634.30
2010,05,22,15,32,627.30
2010,05,22,15,33,623.50
2010,05,22,15,34,624.60
2010,05,22,15,35,574.30
2010,05,22,15,36,538.40
2010,05,22,15,37,534.50
2010,05,22,15,38,540.30
2010,05,22,15,39,501.10
2010,05,22,15,40,495.50
2010,05,22,15,41,530.50
2010,05,22,15,42,543.90
2010,05,22,15,43,569.00
2010,05,22,15,44,536.20
2010,05,22,15,45,533.80
2010,05,22,15,46,578.60
2010,05,22,15,47,560.70
2010,05,22,15,48,599.50
2010,05,22,15,49,561.50
2010,05,22,15,50,565.70
2010,05,22,15,51,585.60
2010,05,22,15,52,598.90
2010,05,22,15,53,613.90
2010,05,22,15,54,632.10
2010,05,22,15,55,640.70
2010,05,22,15,56,607.70
2010,05,22,15,57,549.60
2010,05,22,15,58,604.70
2010,05,22,15,59,606.50
2010,05,22,16,00,587.80
2010,05,22,16,01,610.30
2010,05,22,16,02,635.80
2010,05,22,16,03,623.10
2010,05,22,16,04,606.50
2010,05,22,16,05,572.10
2010,05,22,16,06,528.60
2010,05,22,16,07,554.60
2010,05,22,16,08,577.50
2010,05,22,16,09,594.20
2010,05,22,16,10,519.90
2010,05,22,16,11,515.90
2010,05,22,16,12,553.20
2010,05,22,16,13,541.60
2010,05,22,16,14,510.70
2010,05,22,16,15,460.60
2010,05,22,16,16,426.50
2010,05,22,16,17,415.20
2010,05,22,16,18,436.90
2010,05,22,16,19,456.80
2010,05,22,16,20,451.40
2010,05,22,16,21,428.50
2010,05,22,16,22,443.00
2010,05,22,16,23,452.80
2010,05,22,16,24,457.40
2010,05,22,16,25,443.50
2010,05,22,16,26,444.10
2010,05,22,16,27,456.50
2010,05,22,16,28,488.30
2010,05,22,16,29,533.30
2010,05,22,16,30,530.70
2010,05,22,16,31,568.80
2010,05,22,16,32,571.20
2010,05,22,16,33,599.60
2010,05,22,16,34,611.30
2010,05,22,16,35,642.70
2010,05,22,16,36,608.00
2010,05,22,16,37,520.80
2010,05,22,16,38,421.50
2010,05,22,16,39,425.50
2010,05,22,16,40,434.40
2010,05,22,16,41,445.50
2010,05,22,16,42,426.20
2010,05,22,16,43,397.50
2010,05,22,16,44,381.20
2010,05,22,16,45,393.00
2010,05,22,16,46,383.10
2010,05,22,16,47,406.00
2010,05,22,16,48,416.30
2010,05,22,16,49,394.70
2010,05,22,16,50,388.50
2010,05,22,16,51,378.50
2010,05,22,16,52,351.90
2010,05,22,16,53,326.00
2010,05,22,16,54,302.50
2010,05,22,16,55,279.20
2010,05,22,16,56,266.50
2010,05,22,16,57,258.10
2010,05,22,16,58,255.80
2010,05,22,16,59,259.50
2010,05,22,17,00,257.60
2010,05,22,17,01,255.80
2010,05,22,17,02,253.50
2010,05,22,17,03,251.30
2010,05,22,17,04,250.80
2010,05,22,17,05,249.50
2010,05,22,17,06,247.20
2010,05,22,17,07,244.80